Regional Weather Roundup
Issued by NWS Sioux Falls, SD

Home | Current Version | Previous Version | Graphics & Text | Print | Product List | Glossary Off
Versions: 1 2 3 4 5 6 7 8 9 10 11 12 13 14 15 16 17 18 19 20 21 22 23 24 25 26 27 28 29 30 31 32 33 34 35 36 37 38 39 40 41 42 43 44 45 46 47 48 49 50

074
ASUS43 KFSD 250702
RWRFSD

WEATHER ROUNDUP FOR SE SOUTH DAKOTA/SW MINNESOTA/NW IOWA
NATIONAL WEATHER SERVICE SIOUX FALLS SD
200 AM CDT TUE JUL 25 2017

NOTE: "FAIR" INDICATES FEW OR NO CLOUDS BELOW 12,000 FEET WITH NO
SIGNIFICANT WEATHER AND OR OBSTRUCTIONS TO VISIBILITY.


SDZ038>040-050-052>070-250800-
SOUTHEAST SOUTH DAKOTA

CITY           SKY/WX    TMP DP  RH WIND       PRES   REMARKS
BROOKINGS      FAIR      69  64  84 SE15      29.94F
CHAMBERLAIN    FAIR      82  70  66 S23       29.80S
HURON          FAIR      72  67  84 E9        29.85R
MADISON        FAIR      70  70 100 SE16G23   29.93R
MITCHELL       FAIR      75  67  76 SE14      29.84S
SIOUX FALLS    FAIR      73  66  78 S15G24    29.94S
WINNER         FAIR      80  69  69 S28G38    29.82F
YANKTON        FAIR      76  68  76 SE14      29.89F
$$

MNZ071-072-080-081-089-090-097-098-250800-
SOUTHWEST MINNESOTA

CITY           SKY/WX    TMP DP  RH WIND       PRES   REMARKS
FAIRMONT       FAIR      66  63  90 SE10      30.04R
JACKSON        FAIR      64  61  88 SE8       30.04R THUNDER
LUVERNE        FAIR      68  61  77 SE8G17    29.98R
MARSHALL       FAIR      69  64  84 SE14      29.98F
MONTEVIDEO     MOCLDY    70  64  83 SE14G23   29.97F
PIPESTONE      FAIR      70  63  78 S9        29.98S THUNDER
REDWOOD FALLS  FAIR      68  62  81 S16       29.97F
TRACY          FAIR      68  65  90 SE6       30.01S
WINDOM         FAIR      70  61  73 SE12G17   30.02F THUNDER
WORTHINGTON    FAIR      68  62  81 SE7       30.02R
$$

IAZ001>003-012>014-020>022-031-032-NEZ013-014-SDZ071-250800-
NORTHWEST IOWA

CITY           SKY/WX    TMP DP  RH WIND       PRES   REMARKS
CHEROKEE       FAIR      69  65  85 S8        29.99S
DENISON        FAIR      70  64  83 VRB5      30.02R
ESTHERVILLE    FAIR      66  63  90 S15G22    30.02S
ORANGE CITY    FAIR      70  66  88 SE7       29.98F
SHELDON        FAIR      70  63  78 SE10G17   29.97F
SIOUX CITY     FAIR      74  67  78 SE12      29.96R
SPENCER        FAIR      69  63  81 SE14      30.01R
STORM LAKE     FAIR      68  63  83 SE10      30.02R
$$

ABBREVIATIONS USED IN REMARKS
   TC - TEMPERATURE IN CELSIUS
  WCI - WIND CHILL INDEX
   HX - HEAT INDEX
  VSB - VISIBILITY





USA.gov is the U.S. government's official web portal to all federal, state and local government web resources and services.